[[{"header":{"parameterUnit":"m.s-1","parameterCategory":1,"la1":30.2992,"la2":30.254,"lo1":-89.0895,"lo2":-89.0443,"dy":0.0025,"dx":0.0025,"nx":19,"ny":19,"refTime":"2026-05-05T21:00:00:Z","depth":0,"parameterNumber":2,"parameterNumberName":"U-component_of_WINDS"},"data":[0,0,0,0.2232,0.2232,0.2239,0.2239,0.2246,0.2246,0,0,0,0,0,0,0,0,0,0,0,0.2229,0.2229,0.2232,0.2232,0.2239,0.2239,0.2246,0.2246,0,0,0,0,0,0,0,0,0,0,0,0.2229,0.2229,0.2229,0.2232,0.2239,0.2239,0.2246,0.2241,0,0,0,0,0,0,0,0,0,0,0.2234,0.2231,0.2229,0.2229,0.2232,0.2239,0.2239,0.2241,0.2241,0.2241,0,0.2242,0,0.2244,0.2246,0.2246,0,0,0,0.2232,0.2231,0.2233,0.2229,0.2232,0.2239,0.2236,0.2241,0.2242,0.2242,0.2242,0.2243,0.2244,0.2246,0.2246,0.2248,0.2248,0,0,0.2232,0.223,0.2233,0.2234,0.2234,0.2236,0.2236,0.2241,0.2241,0.2243,0.2243,0.2244,0.2246,0.2246,0.2248,0.2248,0,0,0,0.223,0.2229,0.2232,0.2233,0.2235,0.2236,0.2237,0.2241,0.2242,0.2243,0.2245,0.2246,0.2246,0.2248,0.2248,0.2246,0,0,0,0.223,0.2228,0.2232,0.223,0.2235,0.2239,0.2236,0.2242,0.2243,0.2244,0.2246,0.2246,0.2248,0.2248,0.2246,0.2245,0,0,0,0.2228,0.2228,0.2229,0.223,0.2234,0.2239,0.224,0.2242,0.2243,0.2246,0.2246,0.2248,0.2248,0.2246,0.2245,0.2244,0,0,0,0.2226,0.2228,0.2229,0.2231,0.2234,0.2237,0.224,0.2243,0.2245,0.2246,0.2248,0.2248,0.2246,0.2245,0.2245,0.2243,0.2243,0,0,0.2227,0.2228,0.2229,0.2231,0.2234,0.2236,0.2239,0.2242,0.2244,0.2246,0.2246,0.2246,0.2245,0.2244,0.2241,0.224,0,0,0,0.2228,0.2229,0.2231,0.2233,0.2236,0.2237,0.2241,0.2242,0.2244,0.2245,0.2245,0.2245,0.2245,0.2244,0.2244,0.2243,0.2248,0.2248,0.2248,0.2227,0.2229,0.2231,0.2234,0.2235,0.2238,0.2239,0.2241,0.2243,0.2242,0.2243,0.2241,0.224,0.224,0.2239,0.2243,0.2243,0.2243,0.2243,0.2228,0.223,0.2231,0.2233,0.2235,0.2236,0.2238,0.2239,0.2239,0.2241,0.2241,0.2242,0.2239,0.2239,0.2243,0.2243,0.2243,0.2243,0.2243,0.2228,0.2229,0.223,0.2232,0.2233,0.2235,0.2235,0.2236,0.2238,0.2237,0.2237,0.2237,0.2237,0.2237,0.2237,0.2237,0.2237,0.2237,0.2237,0.2227,0.2228,0.2229,0.2231,0.2231,0.2232,0.2234,0.2234,0.2234,0.2235,0.2235,0.2236,0.2239,0.224,0.2237,0.2237,0.2237,0.2237,0.2237,0.2227,0.2227,0.2228,0.2229,0.223,0.223,0.2231,0.2231,0.2232,0.2231,0.2232,0.2234,0.2235,0.2235,0.2236,0.2232,0.2232,0.2232,0.2232,0.2227,0.2227,0.2228,0.2228,0.2229,0.2229,0.2229,0.2229,0.2229,0.2229,0.2229,0.223,0.223,0.2231,0.2231,0.2231,0.2227,0.2227,0.2227,0.2227,0.2227,0.2227,0.2228,0.2228,0.2228,0.2227,0.2226,0.2226,0.2227,0.2228,0.2228,0.223,0.223,0.2231,0.2232,0.2233,0,0]},{"header":{"parameterUnit":"m.s-1","parameterCategory":1,"la1":30.2992,"la2":30.254,"lo1":-89.0895,"lo2":-89.0443,"dy":0.0025,"dx":0.0025,"nx":19,"ny":19,"refTime":"2026-05-05T21:00:00:Z","depth":0,"parameterNumber":3,"parameterNumberName":"V-component_of_WINDS"},"data":[0,0,0,5.9631,5.9631,5.9644,5.9644,5.9668,5.9668,0,0,0,0,0,0,0,0,0,0,0,5.9632,5.9632,5.9631,5.9631,5.9644,5.9644,5.9667,5.9668,0,0,0,0,0,0,0,0,0,0,0,5.9631,5.9632,5.9632,5.9632,5.9644,5.9644,5.9667,5.9655,0,0,0,0,0,0,0,0,0,0,5.9642,5.9646,5.9632,5.9632,5.9632,5.9644,5.9644,5.9655,5.9656,5.9665,0,5.9674,0,5.9671,5.967,5.967,0,0,0,5.9628,5.9645,5.9645,5.9632,5.9632,5.9644,5.9638,5.9655,5.9657,5.9667,5.9674,5.9675,5.9672,5.967,5.967,5.9733,5.9733,0,0,5.9627,5.9636,5.9644,5.9646,5.9645,5.9637,5.9638,5.9656,5.9665,5.9674,5.9675,5.9672,5.967,5.967,5.9732,5.9733,0,0,0,5.9628,5.9636,5.9635,5.9645,5.9647,5.9638,5.9639,5.9664,5.9663,5.9675,5.9672,5.967,5.9671,5.9732,5.9732,5.9763,0,0,0,5.9627,5.9636,5.9635,5.964,5.9647,5.9656,5.9646,5.9662,5.9663,5.9672,5.967,5.9671,5.9731,5.9732,5.9761,5.9776,0,0,0,5.9629,5.9636,5.9639,5.9641,5.9646,5.9655,5.9655,5.9662,5.9662,5.967,5.9671,5.9731,5.9732,5.9759,5.9773,5.9795,0,0,0,5.9634,5.9666,5.964,5.9675,5.9646,5.9674,5.9655,5.9675,5.9686,5.9671,5.9731,5.9732,5.9759,5.9771,5.9793,5.9815,5.9825,0,0,5.9679,5.9672,5.9692,5.9669,5.9704,5.9672,5.9711,5.9712,5.9705,5.9724,5.9725,5.9762,5.9773,5.9794,5.9877,5.9885,0,0,0,5.9709,5.9724,5.9731,5.9742,5.9744,5.9747,5.9742,5.9742,5.9758,5.9716,5.9775,5.9782,5.9794,5.9804,5.9811,5.9821,5.9737,5.9737,5.9737,5.9785,5.9775,5.9807,5.9798,5.9809,5.9804,5.9812,5.9811,5.9797,5.9811,5.9817,5.9868,5.988,5.9885,5.9896,5.9827,5.9827,5.9828,5.9828,5.9851,5.987,5.9851,5.9875,5.9864,5.9884,5.988,5.987,5.9887,5.9863,5.9873,5.9849,5.9894,5.9903,5.983,5.9829,5.9829,5.9829,5.9829,5.99,5.9907,5.9907,5.9923,5.9935,5.9925,5.9943,5.9932,5.9921,5.9932,5.9936,5.9936,5.9934,5.9935,5.9935,5.9935,5.9935,5.9936,5.9936,5.995,5.9949,5.9966,5.9972,5.9977,5.9984,5.9979,5.9984,5.9988,5.9978,5.9978,5.9963,5.9901,5.9885,5.9938,5.9938,5.9938,5.9937,5.9937,6.0019,6.0002,6.0027,6.0033,6.0039,6.0053,6.0039,6.0051,6.0054,6.0063,6.0046,6.0002,5.9993,5.9988,5.9975,6.0048,6.0048,6.0048,6.0048,6.006,6.0055,6.0079,6.0089,6.0098,6.0088,6.0117,6.0114,6.0108,6.0109,6.0097,6.008,6.0075,6.0069,6.0062,6.0049,6.014,6.014,6.014,6.0103,6.0098,6.0125,6.0119,6.0123,6.0127,6.0154,6.0167,6.0156,6.0143,6.011,6.0106,6.0077,6.0069,6.0054,6.0043,6.0021,0,0]}]]